Los Angeles BAVN Open Bid Opportunities

A listing of open bid opportunities provided by the City of Los Angeles and available on the Los Angeles Business Assistance Virtual Network (BAVN) at https://www.labavn.org. Click on a Bid ID to open the BAVN page.

IDTitleDepartmentStatusCategory / TypeOpen DateDue Date
39745GLOVES WORK AND DRIVERWater & PowerOpenCommodity / Request For Bid2020-05-11T08:43:00.0002020-05-28T08:43:00.000
39743IFB 131761 STAINLESS STEEL LADDERS WITH LADDER UPS AND APPURTENANCESWater & PowerOpenCommodity / Request For Bid2020-05-08T02:40:00.0002020-05-19T02:40:00.000
39741Transmitter 2wire Aluminum Mfr Scott SafetyGeneral ServicesOpenCommodity / Request For Quote2020-05-08T02:34:00.0002020-05-12T02:34:00.000
39740Kit Analyzer Repair Motors Mfr Wallace TiernanGeneral ServicesOpenCommodity / Request For Quote2020-05-08T02:34:00.0002020-05-12T02:34:00.000
39738Fencing 5Rail SequoiaGeneral ServicesOpenCommodity / Request For Quote2020-05-08T01:34:00.0002020-05-13T01:34:00.000
39735IFB 129599 24 STAINLESS STEEL BUTTERFLY VALVESWater & PowerOpenCommodity / Request For Bid2020-05-08T09:00:00.0002020-06-11T09:00:00.000
39734IFB 130594 EAGLE ROCK RESERVOIR CABINETS AND LIFE RINGSWater & PowerOpenCommodity / Request For Bid2020-05-08T09:00:00.0002020-05-27T09:00:00.000
39733Workstation TECAN EVO752General ServicesAmendedCommodity / Request For Quote2020-05-08T07:05:00.0002020-05-12T07:05:00.000
39731Angel MixGeneral ServicesOpenCommodity / Request For Quote2020-05-07T04:49:00.0002020-05-12T04:49:00.000
39729IFB NO 132152 LUMINAIRE LED STREET FLOOD LIGHTSWater & PowerOpenCommodity / Request For Bid2020-05-07T02:34:00.0002020-05-21T02:34:00.000
39728VEHICLE ALL TERRAINWater & PowerOpenCommodity / Request For Bid2020-05-07T02:40:00.0002020-05-21T02:40:00.000
39727HAND SOAP AND SCOURING POWDERWater & PowerOpenCommodity / Request For Bid2020-05-07T02:17:00.0002020-05-27T02:17:00.000
39726Concrete Tools and Related ProductsGeneral ServicesOpenCommodity / Request For Quote2020-05-07T03:49:00.0002020-05-12T03:49:00.000
39725IFB 132082 ELECTRICAL JUNCTION BOXES FOR LAAFP O2 STATIONWater & PowerOpenCommodity / Request For Bid2020-05-07T04:00:00.0002020-05-22T04:00:00.000
39723Generator XRayGeneral ServicesOpenCommodity / Request For Quote2020-05-07T02:34:00.0002020-05-12T02:34:00.000
39721WATER TRUCK PARTS VALEWWater & PowerOpenCommodity / Request For Bid2020-05-07T11:56:00.0002020-05-29T11:56:00.000
39720CLARTS Warehouse Lighting MaterialsGeneral ServicesOpenCommodity / Request For Quote2020-05-07T10:20:00.0002020-05-12T10:20:00.000
39719IFB 131301 OWENS LAKE T3 VFD REPLACEMENTWater & PowerOpenCommodity / Request For Bid2020-05-07T08:47:00.0002020-05-22T08:47:00.000
39718IFB 130128R1 12INCH REGULATOR AND RELIEF VALVES FOR CORONADO TRUNK LINEWater & PowerOpenCommodity / Request For Bid2020-05-07T08:36:00.0002020-06-12T08:36:00.000
39717VAN MINI PASSENGERGeneral ServicesOpenCommodity / Request For Quote2020-05-07T08:49:00.0002020-05-21T08:49:00.000
39716TRUCK UTILITY 4X2General ServicesOpenCommodity / Request For Bid2020-05-07T08:49:00.0002020-05-21T08:49:00.000
39714Dual Range AC Voltage DetectorGeneral ServicesOpenCommodity / Request For Quote2020-05-07T07:05:00.0002020-05-14T07:05:00.000
39713IFB 132108 NETWORK TESTER ALBEDO XGENIUSWater & PowerOpenCommodity / Request For Bid2020-05-06T03:34:00.0002020-05-26T03:34:00.000
39710TISSUE BATHWater & PowerAmendedCommodity / Request For Bid2020-05-06T01:33:00.0002020-05-27T01:33:00.000
39708Equipment GardeningGeneral ServicesOpenCommodity / Request For Quote2020-05-06T12:35:00.0002020-05-12T12:35:00.000
39706VAN HANDICAPGeneral ServicesOpenCommodity / Request For Quote2020-05-06T09:35:00.0002020-05-20T09:35:00.000
39704Venice Beach Pier Maintenance and RepairRecreation and ParksOpenConstruction / Request For Bid2020-05-07T05:00:00.0002020-06-16T05:00:00.000
39702120022 Continuous Emissions Monitoring System CEMS Sampling Maintenance at Los Angeles International AirportAirports Los Angeles WorldOpenCommodity / Request For Bid2020-05-05T05:00:00.0002020-06-04T05:00:00.000
39701Central Belt Drive Blowers Mfr Central Blower CoGeneral ServicesOpenCommodity / Request For Quote2020-05-05T10:04:00.0002020-05-12T10:04:00.000
39700IFB 132119 BULK AND WATER SOFTENER SALTWater & PowerAmendedCommodity / Request For Bid2020-05-05T08:14:00.0002020-05-26T08:14:00.000
39699VAN PANEL Spec No 1701117General ServicesOpenCommodity / Request For Bid2020-05-05T07:06:00.0002020-05-19T07:06:00.000
39696Mail Processing ServicesBuilding�and SafetyOpenPersonal Services / Request For Proposal2020-05-07T10:00:00.0002020-06-25T10:00:00.000
39688120028 Supply And Delivery Of Custodial Equipment Parts at Los Angeles International Airport and Van Nuys AirportAirports Los Angeles WorldOpenCommodity / Request For Bid2020-05-01T05:00:00.0002020-06-04T05:00:00.000
39687Cleaning Tools and SuppliesHarbor Department Port of Los AngelesOpenCommodity / Request For Bid2020-05-01T10:00:00.0002020-05-14T10:00:00.000
39686120026 Supply And Delivery of New Pumps and Pump Parts at Los Angeles International AirportAirports Los Angeles WorldOpenCommodity / Request For Bid2020-05-01T05:00:00.0002020-06-04T05:00:00.000
39684IFB 131514 GREEN VERDUGO FCRP STRONG MOTION SENSOR EQUIPMENTWater & PowerAmendedCommodity / Request For Bid2020-05-01T08:55:00.0002020-05-14T08:55:00.000
39681COMPRESSED NATURAL GAS CNG TREE TRIMMER TRUCKSWater & PowerAmendedCommodity / Request For Bid2020-04-30T03:00:00.0002020-05-28T03:00:00.000
39679Radio Testing EquipmentGeneral ServicesAmendedCommodity / Request For Bid2020-05-05T04:34:00.0002020-05-20T04:34:00.000
39678Rolling Bearing GreaseGeneral ServicesAmendedCommodity / Request For Quote2020-05-07T09:36:00.0002020-05-14T09:36:00.000
39675Teak Adirondack ChairsHarbor Department Port of Los AngelesOpenCommodity / Request For Quote2020-04-30T08:00:00.0002020-05-15T08:00:00.000
39671RELAY LINE CURRENT DIFFERENTIALWater & PowerOpenCommodity / Request For Bid2020-04-29T01:25:00.0002020-05-13T01:25:00.000
39670ARC for AmbulanceGeneral ServicesOpenCommodity / Request For Bid2020-04-29T12:07:00.0002020-05-20T12:07:00.000
39669Lead Outreach Education Enrollment Services and TrainingHousing and Community InvestmentAmendedPersonal Services / Request For Proposal2020-05-04T06:00:00.0002020-06-29T06:00:00.000
39666DECALSGeneral ServicesAmendedCommodity / Request For Quote2020-05-01T02:51:00.0002020-05-14T02:51:00.000
39659IFB 131975 4 FEBCO LEAD FREE DETECTOR CHECKWater & PowerAmendedCommodity / Request For Bid2020-04-28T06:53:00.0002020-05-12T06:53:00.000
39657Western Avenue Bus Stop and Pedestrian Improvement ProjectEngineering Bureau Public WorksAmendedConstruction / Request For Bid2020-04-28T05:00:00.0002020-06-02T05:00:00.000
39656Resurfacing and Refinishing Bathtubs Sinks and CountertopsHousing Authority City of Los AngelesAmendedConstruction / Request For Quote2020-04-27T01:00:00.0002020-05-13T01:00:00.000
39655Tree Trimming and Removal ServicesHousing Authority City of Los AngelesOpenConstruction / Request For Bid2020-04-27T12:00:00.0002020-05-26T12:00:00.000
39652120025 Supply And Delivery Of Scaffolding Rental Services at Los Angeles International Airport and Van Nuys AirportAirports Los Angeles WorldOpenCommodity / Request For Bid2020-04-27T08:00:00.0002020-05-28T08:00:00.000
39650PAPER FOLDING MACHINEWater & PowerOpenCommodity / Request For Bid2020-04-24T11:08:00.0002020-05-14T11:08:00.000
39643TRUCK UTILITY 4X4General ServicesOpenCommodity / Request For Quote2020-04-23T02:34:00.0002020-05-14T02:34:00.000
39642IFB 127375R1 SERVICES INTERMITTENT TREE TRIMMING MONO AND INYO COUNTIESWater & PowerAmendedCommodity / Request For Bid2020-04-23T12:51:00.0002020-05-13T12:51:00.000
39639Squeeze ToolGeneral ServicesAmendedCommodity / Request For Quote2020-04-30T12:39:00.0002020-05-14T12:39:00.000
39636Special Event Temporary FencingHarbor Department Port of Los AngelesOpenCommodity / Request For Bid2020-04-23T09:00:00.0002020-05-15T09:00:00.000
39633CONNECTORS FOR OVERHEAD POWER DISTRIBUTION LINESWater & PowerAmendedCommodity / Request For Bid2020-04-22T03:41:00.0002020-06-10T03:41:00.000
39630120019 Management of Commercial Vehicle Holding Lot at Los Angeles International AirportAirports Los Angeles WorldOpenCommodity / Request For Bid2020-04-22T05:00:00.0002020-05-21T05:00:00.000
39626120018 Irrigation Products and Supplies for LAX and Van Nuys AirportsAirports Los Angeles WorldAmendedCommodity / Request For Bid2020-04-22T05:00:00.0002020-05-21T05:00:00.000
39621DODGE RAM 1500 PROMASTER CARGO VAN 136WB HIGH ROOF EXTGeneral ServicesAmendedCommodity / Request For Quote2020-05-06T10:19:00.0002020-05-13T10:19:00.000
39619MEDIUM VOLTAGE CABLE FOR FEDERALLY FUNDED PROJECTSWater & PowerAmendedCommodity / Request For Bid2020-04-21T03:58:00.0002020-06-03T03:58:00.000
39616Request for Proposals Direct Pay Letter of CreditAirports Los Angeles WorldAmendedPersonal Services / Request For Proposal2020-04-21T07:00:00.0002020-05-22T07:00:00.000
39615CABLE PAPERINSULATED LEADCOVERED PILCWater & PowerAmendedCommodity / Request For Bid2020-04-21T01:58:00.0002020-05-21T01:58:00.000
39613IFB NO 130838 MODULAR SOUND BARRIER SYSTEMWater & PowerOpenCommodity / Request For Bid2020-04-21T03:00:00.0002020-05-13T03:00:00.000
39605PICKUP CREW CAB 4X4General ServicesOpenCommodity / Request For Bid2020-04-21T12:50:00.0002020-05-12T12:50:00.000
39601TOS 4 Project Design Services for Affordable Housing and Sustainability Communities AHSC Round 4 ProjectsEngineering Bureau Public WorksAmendedPersonal Services / Task Order Solicitation2020-04-17T02:00:00.0002020-06-05T02:00:00.000
39600PUMPING UNITSWater & PowerAmendedCommodity / Request For Bid2020-04-17T09:52:00.0002020-05-12T09:52:00.000
39596GAS Detector NOXGeneral ServicesAmendedCommodity / Request For Quote2020-05-07T09:20:00.0002020-05-14T09:20:00.000
39595TERMINATION 138 KV CABLE XLPE INSULATEDWater & PowerAmendedCommodity / Request For Bid2020-04-15T01:01:00.0002020-05-15T01:01:00.000
39580HYUNDAI KONA PER SPEC FD620WAWMBD 220General ServicesAmendedCommodity / Request For Quote2020-05-05T10:19:00.0002020-05-19T10:19:00.000
39573IFB 131096 NORTH HAIWEE MANUFACTURED HOMEWater & PowerOpenCommodity / Request For Bid2020-04-13T08:21:00.0002020-05-13T08:21:00.000
39572120016 Purchase Installation and Servicing of Window Coverings at Los Angeles International AirportAirports Los Angeles WorldAmendedCommodity / Request For Bid2020-04-10T06:00:00.0002020-05-14T06:00:00.000
39568Legal ServicesHousing Authority City of Los AngelesAmendedPersonal Services / Request For Proposal2020-04-10T08:00:00.0002020-05-13T08:00:00.000
39543NITRATE ANALYZERSWater & PowerAmendedCommodity / Request For Bid2020-04-07T09:57:00.0002020-05-12T09:57:00.000
39539Canine Veterinary Services for the Los Angeles Police DepartmentPoliceOpenPersonal Services / Request For Proposal2020-04-09T06:00:00.0002020-05-21T06:00:00.000
39530POLE LINE HARDWAREWater & PowerAmendedCommodity / Request For Bid2020-04-02T01:28:00.0002020-05-11T01:28:00.000
39500015895 Tree Trimming for Street Lighting in the Parkways of Woodbridge StreetStreet Services Bureau Public WorksAmendedConstruction / Request For Bid2020-03-27T06:00:00.0002020-05-26T06:00:00.000
39498015894 Tree Trimming for Street Lighting in the Parkways of 25th StreetStreet Services Bureau Public WorksAmendedConstruction / Request For Bid2020-03-27T03:00:00.0002020-05-26T03:00:00.000
39434015735 Landscape Maintenance of Median Islands BayHarborStreet Services Bureau Public WorksAmendedConstruction / Request For Bid2020-03-16T07:00:00.0002020-05-19T07:00:00.000
39427015736 Landscape Maintenance of Median Islands East ValleyStreet Services Bureau Public WorksAmendedConstruction / Request For Bid2020-03-16T01:00:00.0002020-05-19T01:00:00.000
39401Tenant Relocation Assistance ServicesHousing and Community InvestmentAmendedPersonal Services / Request For Proposal2020-03-16T06:00:00.0002020-05-13T06:00:00.000
39396120014 Hazardous Waste Material Cleanup and Disposal at Los Angeles International Airport and Van Nuys AirportAirports Los Angeles WorldAmendedCommodity / Request For Bid2020-03-11T05:00:00.0002020-05-14T05:00:00.000
39345PreApproved Human Resources and Training Services Consultants ListPersonnelOpenPersonal Services / Request For Proposal2020-03-13T06:00:00.0002020-06-02T06:00:00.000
39331120012 Runway Rubber and Paint Removal for LAXAirports Los Angeles WorldAmendedCommodity / Request For Bid2020-03-03T04:00:00.0002020-05-14T04:00:00.000
39330MEDIA PLANNING AND PLACEMENT SERVICESWater & PowerAmendedPersonal Services / Request For Proposal2020-03-03T01:59:00.0002020-05-15T01:59:00.000
39234Request for Proposals for CCTV Phase 2 System Upgrade and ExpansionAirports Los Angeles WorldAmendedPersonal Services / Request For Proposal2020-02-25T12:00:00.0002020-06-30T12:00:00.000
39200Wilmington Waterfront Promenade and Building DemolitionHarbor Department Port of Los AngelesAmendedConstruction / Request For Bid2020-02-20T03:00:00.0002020-05-21T03:00:00.000
39183Special Events CoordinatorLibrary Los Angeles PublicOpenPersonal Services / Request For Proposal2020-02-20T01:00:00.0002020-07-14T01:00:00.000
39176Security Guard Services for the City of Los AngelesPoliceOpenPersonal Services / Request For Proposal2020-02-20T06:00:00.0002020-05-11T06:00:00.000
39146Customer Contact Center Interactive Voice Response Replacement RFI NO 21220JOINT1KMWater & PowerAmendedPersonal Services / Request For Interest2020-02-14T12:00:00.0002020-05-21T12:00:00.000
39016Request for Proposals Smart Parking at LAX and Van Nuys AirportsAirports Los Angeles WorldAmendedPersonal Services / Request For Proposal2020-02-03T05:00:00.0002020-06-01T05:00:00.000
38951120006 Supply and Delivery of Stripe Hog ReplacementRepair Parts at Los Angeles International AirportAirports Los Angeles WorldAmendedCommodity / Request For Bid2020-01-27T05:00:00.0002020-05-14T05:00:00.000
38862LA Animal Services SpayNeuter Clinics SpayNeuter Mobile Clinics And SpayNeuter Support ServicesAnimal ServicesAmendedPersonal Services / Request For Qualification2020-02-19T06:00:00.0002020-05-15T06:00:00.000
38588Leasing Retail Space at Braude Retail Mall in Van NuysGeneral ServicesOpenPersonal Services / Request For Proposal2019-12-12T11:00:00.0002024-06-30T11:00:00.000
38577Popup Operators at Los Angeles Mall in Downtown LAGeneral ServicesOpenPersonal Services / Request For Proposal2019-12-11T05:00:00.0002024-06-30T05:00:00.000
38576Leasing Retail Space at Los Angeles Mall in Downtown LAGeneral ServicesOpenPersonal Services / Request For Proposal2019-12-11T03:00:00.0002024-06-30T03:00:00.000
38185RFI RENEWABLE ANDOR DISTRIBUTED ENERGY RESOURCES 10282019 POWER JRDWater & PowerOpenPersonal Services / Request For Interest2019-10-31T03:00:00.0002030-01-01T03:00:00.000
35784Request for Proposals for Lease of Property for Fixed Base Operations at 6201 W Imperial Highway at Los Angeles International AirportAirports Los Angeles WorldOpenPersonal Services / Request For Proposal2019-02-01T03:00:00.0002199-12-31T03:00:00.000
34323Lease of Retail Suites at Various LADOT Parking FaciliitesTransportationAmendedPersonal Services / Request For Proposal2018-08-24T04:00:00.0002020-08-31T04:00:00.000
30751Online Bidding PracticeGeneral ServicesAmendedCommodity / Request For Bid2019-08-16T11:36:00.0002037-06-30T11:36:00.000

Add a Comment

Your email address will not be published. Required fields are marked *

three × 5 =